Flag for Canada Weather past 2 weeks in Brantford, Ontario, Canada

Now
75 °F

Broken clouds.


Feels Like: 76 °F
Forecast: 59 / 73 °F
Wind: 8 mph from Southwest

Location: Hamilton Airport

Current Time: Sep 1, 2014 at 9:24:58 PM

Latest Report: Sep 1, 2014 at 8:00 PM


Visibility: 15 mi

Pressure: 29.83 "Hg

Humidity: 78%

Dew point: 68 °F

Location of BrantfordLocation

Historic Weather in Brantford — Graph

°F

Brantford temperature yesterday

Maximum temperature yesterday: 81 °F (at 3:00 PM)
Minimum temperature yesterday: 66 °F (at 11:00 PM)
Average temperature yesterday: 75 °F

Past Weeks' High & Low Weather Summary

 TemperatureHumidityPressure
High84 °F (Aug 26, 2:00 PM)100% (Aug 19, 3:00 AM)30.19 "Hg (Aug 19, 3:00 AM)
Low48 °F (Aug 28, 7:00 AM)46% (Aug 28, 2:00 PM)29.82 "Hg (Aug 19, 11:00 PM)
Average68 °F82%30.01 "Hg
* Reported Aug 17 8:00 PM — Sep 1 8:00 PM, Brantford, Weather by CustomWeather, © 2014

Note: Actual official high and low records may vary slightly from our data, if they occured in-between our weather recording intervals... More about our weather records

Advertising

Brantford weather history for previous 24 hours

 ConditionsComfort  
Time TempWeatherWind HumidityBarometerVisibility
8:00 PM
Sep 1
75 °FBroken clouds.8 mph78%29.83 "Hg15 mi
7:00 PM79 °FPartly sunny.9 mph74%29.82 "Hg15 mi
6:00 PM79 °FPartly sunny.20 mph70%29.82 "Hg15 mi
5:00 PM81 °FPartly sunny.20 mph70%29.83 "Hg15 mi
4:00 PM79 °FPartly sunny.16 mph74%29.84 "Hg15 mi
3:00 PM79 °FPartly sunny.16 mph74%29.86 "Hg15 mi
2:00 PM79 °FPartly sunny.15 mph79%29.88 "Hg10 mi
1:00 PM77 °FBroken clouds.20 mph79%29.90 "Hg10 mi
12:00 PM75 °FBroken clouds.14 mph89%29.91 "Hg8 mi
11:00 AM75 °FCloudy.14 mph89%29.92 "Hg8 mi
10:00 AM73 °FFog.12 mph100%29.94 "Hg2 mi
9:00 AM72 °FDrizzle. Fog.7 mph94%29.95 "Hg1 mi
8:00 AM70 °FFog.8 mph100%29.95 "Hg1 mi
7:53 AM70 °FFog.8 mph100%29.95 "Hg1 mi
7:00 AM70 °FFog.7 mph100%29.95 "Hg0 mi
6:00 AM68 °FFog.5 mph100%29.95 "Hg1 mi
5:00 AM66 °FFog.2 mph100%29.96 "Hg1 mi
4:00 AM66 °FFog.5 mph100%29.96 "Hg1 mi
3:00 AM64 °FFog.5 mph100%29.95 "Hg1 mi
2:00 AM64 °FFog.5 mph94%29.96 "Hg1 mi
1:00 AM66 °FFog.3 mph94%29.95 "Hg1 mi
12:00 AM66 °FPassing clouds.6 mph100%29.95 "Hg15 mi
11:00 PM
Aug 31
66 °FPassing clouds.5 mph100%29.95 "Hg15 mi
10:00 PM68 °FPassing clouds.6 mph100%29.95 "Hg15 mi
9:00 PM70 °FPartly cloudy.5 mph94%29.95 "Hg15 mi
Weather by CustomWeather, © 2014

See weather overviewHow to use our weather pages